Powrót do katalogu

STARLINK-34130

AktywnyŁącznośćVLEO
NORAD 64736·PAYLOAD·🇺🇸 United States

Wystrzelony Jul 2, 2025 z Cape Canaveral Space Force Station

Loading…

Następne Przeloty (najbliższe 24 godziny)

TLE

ŚwieżeSource: CelesTrak SupGP

Epoka: Sep 15, 2026, 03:57 UTC

1 64736C 25144N   26258.16506944  .00064846  00000+0  19155-2 0  2588
2 64736  53.1599  18.5260 0001151  92.7716 334.9552 15.34364088    16

Śledź STARLINK-34130 w czasie rzeczywistym z AllMySat

Download on the App Store